Regional Weather Roundup
Issued by NWS

Home | Current Version | Previous Version | Graphics & Text | Print | Product List | Glossary Off
Versions: 1 2 3 4 5 6 7 8 9 10 11 12 13 14 15 16 17 18 19 20 21 22 23 24 25 26 27 28 29 30 31 32 33 34 35 36 37 38 39 40 41 42 43 44 45 46 47 48 49 50

000
ASUS43 KLSX 232107
RWRMO

WEATHER SUMMARY FOR MISSOURI
NATIONAL WEATHER SERVICE SPRINGFIELD MO
400 PM CDT WED AUG 23 2017

NOTE: "FAIR" INDICATES FEW OR NO CLOUDS BELOW 12,000 FEET WITH NO
       SIGNIFICANT WEATHER AND/OR OBSTRUCTIONS TO VISIBILITY.
       CURRENT SKY AND/OR WEATHER CONDITIONS ARE NOT AVAILABLE FOR
       CHILLICOTHE AND FARMINGTON.

MOZ001>031-035>038-043-044-053-054-232200-
...NORTHERN AND WESTERN MISSOURI...

CITY           SKY/WX    TMP DP  RH WIND       PRES   REMARKS
KANSAS CTY INT SUNNY     78  57  48 MISG      30.09F
KANSAS C DTWN  SUNNY     79  56  45 N8        30.07F
LEE`S SUMMIT   SUNNY     78  57  48 E5        30.10F
ST JOSEPH      SUNNY     80  59  48 MISG      30.09F
CHILLICOTHE      N/A     80  56  43 VRB3      30.09F
KIRKSVILLE     SUNNY     79  49  34 N5        30.09F

$$
MOZ066>068-077>081-088>096-101>105-232200-
...SOUTHWEST MISSOURI...

CITY           SKY/WX    TMP DP  RH WIND       PRES   REMARKS
SPRINGFIELD    SUNNY     78  55  44 NE6       30.07F
JOPLIN         SUNNY     81  56  42 NE8       30.07F
BRANSON        MOSUNNY   79  57  47 E9        30.07F

$$
MOZ032>034-039>042-045>050-055>058-069>072-232200-
...CENTRAL MISSOURI...

CITY           SKY/WX    TMP DP  RH WIND       PRES   REMARKS
COLUMBIA       MOSUNNY   79  54  41 NE9       30.08F
JEFFERSON CITY SUNNY     78  55  44 NE7       30.07F
ROLLA          SUNNY     77  56  48 N9        30.09F
SEDALIA        SUNNY     80  57  45 N8        30.10F
WHITEMAN AFB   SUNNY     77  55  46 NE6       30.07F
WARRENSBURG    SUNNY     77  55  47 E5        30.08F
OSAGE BEACH    SUNNY     77  56  48 E8        30.08F

$$
MOZ051-052-059>065-232200-
...EAST CENTRAL MISSOURI...

CITY           SKY/WX    TMP DP  RH WIND       PRES   REMARKS
ST LOUIS INTL  MOSUNNY   78  53  41 NW9       30.06F
SPIRIT OF STL  MOSUNNY   79  53  40 N5        30.05F
ST CHARLES     SUNNY     78  52  40 VRB3      30.05F

$$
MOZ072>076-082>087-097>100-106>115-232200-
...SOUTH CENTRAL AND SOUTHEAST MISSOURI...

CITY           SKY/WX    TMP DP  RH WIND       PRES   REMARKS
CAPE GIRARDEAU SUNNY     81  56  42 N8        30.02F
FARMINGTON     SUNNY     78  55  44 NE7       30.06F
POPLAR BLUFF   MOSUNNY   81  58  45 VRB6      30.02F
WEST PLAINS    SUNNY     81  53  37 VRB7      30.06F

$$


USA.gov is the U.S. government's official web portal to all federal, state and local government web resources and services.